Location: Saint-Hippolyte
(43.6394°N, 4.7559°E)
Time: 15:38:16
(UTC+00:00)

SAR-Lupe-4 - Pass Details

Date: 24 October 2020
Orbit: 481 x 484 km, 98.2° (Epoch: 22 November)

Event Time Altitude Azimuth Distance (km) Brightness Sun altitude
Rises 17:35:37 0° 13° (NNE) 2,554 7.0 -10.2°
Reaches altitude 10° 17:37:41 10° 14° (NNE) 1,669 6.1 -10.6°
Maximum altitude 17:41:17 87° 105° (ESE) 488 3.5 -11.2°
Drops below altitude 10° 17:44:50 10° 194° (SSW) 1,654 6.5 -11.9°
Sets 17:46:53 0° 194° (SSW) 2,529 7.5 -12.2°
